Location: �perlecques
(50.8057°N, 2.1521°E)
Time: 09:17:57
(UTC+00:00)

N. Korean satellite - Pass Details

Date: 04 December 2022
Orbit: 407 x 444 km, 97.3° (Epoch: 28 January)

Event Time Altitude Azimuth Distance (km) Brightness Sun altitude
Rises 17:09:00 0° 202° (SSW) 2,459 10.8 -12.2°
Reaches altitude 10° 17:11:28 10° 221° (SW) 1,602 10.2 -12.5°
Maximum altitude 17:13:58 19° 268° (W) 1,176 9.5 -12.9°
Drops below altitude 10° 17:16:31 10° 315° (NW) 1,630 9.6 -13.3°
Sets 17:19:03 0° 334° (NNW) 2,519 10.3 -13.7°
